Location: Baller�as
(41.9020°N, 0.1554°W)
Time: 00:10:00
(UTC+00:00)

Cosmos 1821 Rocket - Pass Details

Date: 10 August 2020
Orbit: 946 x 1004 km, 82.9° (Epoch: 22 September)

Event Time Altitude Azimuth Distance (km) Brightness Sun altitude
Rises 20:32:10 0° 192° (SSW) 3,609 6.7 -14.6°
Reaches altitude 10° 20:34:38 10° 194° (SSW) 2,673 6.1 -15.0°
Maximum altitude 20:40:44 73° 278° (W) 1,008 4.2 -15.9°
Drops below altitude 10° 20:46:59 10° 4° (N) 2,727 6.8 -16.8°
Sets 20:49:32 0° 6° (N) 3,687 7.5 -17.2°
